[TLELIST] Archives

 

[TLELIST] Current TLEs

February 14th 2026 PDT

0 HST 1 20580U 90037B 26044.79705679 .00007675 00000-0 25614-3 0 9996 2 20580 28.4663 202.9405 0001477 193.7065 166.3491 15.29094567769659 0 ISS (ZARYA) 1 25544U 98067A 26045.21445063 .00008429 00000-0 16304-3 0 9992 2 25544 51.6315 188.3997 0011062 96.9141 263.3106 15.48593530552699 0 CXO 1 25867U 99040B 26047.73279316 .00001079 00000-0 00000-0 0 9994 2 25867 54.1474 120.3855 8029286 310.6948 0.6338 0.37796722 16869 ...Continue Reading

[TLELIST] [TLELIST] Current TLEs

February 14th 2026 PDT

0 HST 1 20580U 90037B 26044.79705679 .00007675 00000-0 25614-3 0 9996 2 20580 28.4663 202.9405 0001477 193.7065 166.3491 15.29094567769659 0 ISS (ZARYA) 1 25544U 98067A 26045.21445063 .00008429 00000-0 16304-3 0 9992 2 25544 51.6315 188.3997 0011062 96.9141 263.3106 15.48593530552699 0 CXO 1 25867U 99040B 26047.73279316 .00001079 00000-0 00000-0 0 9994 2 25867 54.1474 120.3855 8029286 310.6948 0.6338 0.37796722 16869 ...Continue Reading

[TLELIST] Current TLEs

February 13th 2026 PDT

0 HST 1 20580U 90037B 26043.75278737 .00007384 00000-0 24627-3 0 9991 2 20580 28.4659 210.0598 0001586 182.7138 177.3449 15.29077790769493 0 ISS (ZARYA) 1 25544U 98067A 26044.11739808 .00007930 00000-0 15398-3 0 9991 2 25544 51.6313 193.8240 0011114 93.1734 267.0526 15.48574923552528 0 CXO 1 25867U 99040B 26045.09024790 .00000997 00000-0 00000-0 0 9993 2 25867 54.1100 120.4556 8032205 310.7356 0.8251 0.37796134 16855 ...Continue Reading

[TLELIST] Current TLEs

February 12th 2026 PDT

0 HST 1 20580U 90037B 26042.70850717 .00007862 00000-0 26282-3 0 9999 2 20580 28.4660 217.1802 0001637 171.3717 188.6907 15.29062315769339 0 ISS (ZARYA) 1 25544U 98067A 26043.14939979 .00009847 00000-0 18925-3 0 9992 2 25544 51.6314 198.6099 0011094 90.1489 270.0770 15.48559167552376 0 CXO 1 25867U 99040B 26045.09024790 .00000997 00000-0 00000-0 0 9993 2 25867 54.1100 120.4556 8032205 310.7356 0.8251 0.37796134 16855 ...Continue Reading

[TLELIST] Current TLEs

February 11th 2026 PDT

0 HST 1 20580U 90037B 26041.72948372 .00007929 00000-0 26523-3 0 9997 2 20580 28.4663 223.8541 0001677 163.3807 196.6844 15.29047891769185 0 ISS (ZARYA) 1 25544U 98067A 26042.18139057 .00011529 00000-0 22024-3 0 9999 2 25544 51.6314 203.3958 0011074 86.6860 273.5395 15.48540110552228 0 CXO 1 25867U 99040B 26042.44315465 .00000876 00000-0 00000-0 0 9997 2 25867 54.0699 120.5196 8035794 310.7714 0.4050 0.37798507 16851 ...Continue Reading

[TLELIST] Current TLEs

February 10th 2026 PDT

0 HST 1 20580U 90037B 26040.75045178 .00007715 00000-0 25800-3 0 9991 2 20580 28.4664 230.5298 0001744 153.1588 206.9098 15.29031698769036 0 ISS (ZARYA) 1 25544U 98067A 26041.14883301 .00009718 00000-0 18714-3 0 9990 2 25544 51.6316 208.5012 0011102 83.1842 277.0409 15.48516896552063 0 CXO 1 25867U 99040B 26042.44315465 .00000876 00000-0 00000-0 0 9997 2 25867 54.0699 120.5196 8035794 310.7714 0.4050 0.37798507 16851 ...Continue Reading

[TLELIST] Current TLEs

February 9th 2026 PDT

0 HST 1 20580U 90037B 26039.77140942 .00007499 00000-0 25069-3 0 9992 2 20580 28.4663 237.2056 0001770 143.1754 216.8963 15.29016206768885 0 ISS (ZARYA) 1 25544U 98067A 26040.18079695 .00010658 00000-0 20455-3 0 9996 2 25544 51.6312 213.2864 0011096 78.9890 281.2346 15.48499027551910 0 CXO 1 25867U 99040B 26039.80248350 .00000763 00000-0 00000-0 0 9996 2 25867 54.0420 120.5771 8039148 310.7993 0.8658 0.37804264 16832 ...Continue Reading

[TLELIST] Current TLEs

February 9th 2026 PDT

0 HST 1 20580U 90037B 26039.77140942 .00007499 00000-0 25069-3 0 9992 2 20580 28.4663 237.2056 0001770 143.1754 216.8963 15.29016206768885 0 ISS (ZARYA) 1 25544U 98067A 26040.18079695 .00010658 00000-0 20455-3 0 9996 2 25544 51.6312 213.2864 0011096 78.9890 281.2346 15.48499027551910 0 CXO 1 25867U 99040B 26039.80248350 .00000763 00000-0 00000-0 0 9996 2 25867 54.0420 120.5771 8039148 310.7993 0.8658 0.37804264 16832 ...Continue Reading

[TLELIST] Current TLEs

February 8th 2026 PDT

0 HST 1 20580U 90037B 26038.79235705 .00007968 00000-0 26695-3 0 9992 2 20580 28.4662 243.8802 0001811 133.8603 226.2143 15.29001499768738 0 ISS (ZARYA) 1 25544U 98067A 26039.14821190 .00010933 00000-0 20977-3 0 9990 2 25544 51.6313 218.3910 0011020 76.1997 284.0217 15.48476524551751 0 CXO 1 25867U 99040B 26039.80248350 .00000763 00000-0 00000-0 0 9996 2 25867 54.0420 120.5771 8039148 310.7993 0.8658 0.37804264 16832 ...Continue Reading

[TLELIST] Current TLEs

February 7th 2026 PDT

0 HST 1 20580U 90037B 26037.81329490 .00008603 00000-0 28897-3 0 9992 2 20580 28.4665 250.5538 0001883 124.2340 235.8434 15.28986369768582 0 ISS (ZARYA) 1 25544U 98067A 26037.98653627 .00011965 00000-0 22894-3 0 9994 2 25544 51.6315 224.1327 0011143 71.6186 288.6013 15.48450046551571 0 CXO 1 25867U 99040B 26039.80248350 .00000763 00000-0 00000-0 0 9996 2 25867 54.0420 120.5771 8039148 310.7993 0.8658 0.37804264 16832 ...Continue Reading
  • This mailing list is a public mailing list - anyone may join or leave, at any time.
  • This mailing list is announce-only.

International Space Station (ISS) / Hubble Space Telescope (HST) / Chandra X-Ray Observatory Orbital Data via EMAIL

Privacy Policy:

Private list